Regional Weather Roundup
Issued by NWS

Home | Current Version | Previous Version | Graphics & Text | Print | Product List | Glossary On
Versions: 1 2 3 4 5 6 7 8 9 10 11 12 13 14 15 16 17 18 19 20 21 22 23 24 25 26 27 28 29 30 31 32 33 34 35 36 37 38 39 40 41 42 43 44 45 46 47 48 49 50
000
ASUS43 KLSX 221659
RWRMO

WEATHER SUMMARY FOR MISSOURI
NATIONAL WEATHER SERVICE SPRINGFIELD MO
1200 PM CDT TUE JUL 22 2014

NOTE: "FAIR" INDICATES FEW OR NO CLOUDS BELOW 12,000 FEET WITH NO
       SIGNIFICANT WEATHER AND/OR OBSTRUCTIONS TO VISIBILITY.
       CURRENT SKY AND/OR WEATHER CONDITIONS ARE NOT AVAILABLE FOR
       CHILLICOTHE AND FARMINGTON.

MOZ001>031-035>038-043-044-053-054-221800-
...NORTHERN AND WESTERN MISSOURI...

CITY           SKY/WX    TMP DP  RH WIND       PRES   REMARKS
KANSAS CTY INT MOSUNNY   88  77  69 SW12      30.04S HX 100
KANSAS C DTWN  SUNNY     91  76  61 SW8       30.02F HX 103
LEE`S SUMMIT   SUNNY     87  76  69 SW14      30.05S HX  97
CHILLICOTHE      N/A     88  76  67 VRB5      30.02F HX  99
KIRKSVILLE     PTSUNNY   85  76  74 S9        30.04F HX  94

$$
MOZ066>068-077>081-088>096-101>105-221800-
...SOUTHWEST MISSOURI...

CITY           SKY/WX    TMP DP  RH WIND       PRES   REMARKS
SPRINGFIELD    MOSUNNY   86  72  62 VRB6      30.12R HX  92
JOPLIN         SUNNY     89  73  59 SW12      30.10S HX  97

$$
MOZ032>034-039>042-045>050-055>058-069>072-221800-
...CENTRAL MISSOURI...

CITY           SKY/WX    TMP DP  RH WIND       PRES   REMARKS
COLUMBIA       PTSUNNY   88  76  67 SW7       30.07S HX  99
JEFFERSON CITY MOSUNNY   87  74  64 VRB5      30.05S HX  95
ROLLA          SUNNY     85  71  63 W6        30.08F HX  90
SEDALIA        SUNNY     89  75  63 SW13G18   30.06S HX  99
OSAGE BEACH    SUNNY     86  72  62 W6        30.08S HX  92

$$
MOZ051-052-059>065-221800-
...EAST CENTRAL MISSOURI...

CITY           SKY/WX    TMP DP  RH WIND       PRES   REMARKS
ST LOUIS INTL  PTSUNNY   89  69  51 VRB3      30.09R HX  93
SPIRIT OF STL  PTSUNNY   87  70  56 W6        30.07R HX  92
ST CHARLES     PTSUNNY   85  71  63 VRB3      30.07S HX  90

$$
MOZ072>076-082>087-097>100-106>115-221800-
...SOUTH CENTRAL AND SOUTHEAST MISSOURI...

CITY           SKY/WX    TMP DP  RH WIND       PRES   REMARKS
CAPE GIRARDEAU SUNNY     85  67  54 S5        30.10R
FARMINGTON     SUNNY     82  66  57 CALM      30.13S
POPLAR BLUFF   SUNNY     83  64  52 SW6       30.10R
WEST PLAINS    SUNNY     82  69  64 VRB5      30.14S

$$


USA.gov is the U.S. government's official web portal to all federal, state and local government web resources and services.